• Join FlightAware (Why Join?)
  • Login
  • US Flag GB Flag 
19:29 EST


 

Airport Tracker/Info


-or-


 

Live Flight TrackerFlight Track Log ✈ USC105 ✈ 11-Apr-2013 ✈ KYIP - KDPA

Flight Track Log - Related Links

Times and Time Zones

All times are in EDT time to prevent confusion due to time zone crossing. See the USC105 flight status page for this flight to view local times or setup timezone preferences in your user account.

Time Position Orientation Groundspeed Altitude Reporting Facility
EDT Latitude Longitude Course Direction KTS MPH feet Rate Location/Type
00:13 42.2594 -83.5458 310° West 149 171 1,800  Level Cleveland Center
00:14 42.2578 -83.6047 268° West 165 190 2,500 600 Climbing Cleveland Center
00:15 42.2583 -83.6636 271° West 178 205 3,000 720 Climbing Cleveland Center
00:16 42.2567 -83.7253 268° West 158 182 3,900 660 Climbing Cleveland Center
00:17 42.2531 -83.7842 265° West 161 185 4,400 480 Climbing Cleveland Center
00:19 42.2511 -83.8742 268° West 156 180 5,200 420 Climbing Chicago Center
00:20 42.2506 -83.9342 269° West 158 182 5,600 300 Climbing Chicago Center
00:21 42.2456 -83.9894 263° West 155 178 5,900 120 Climbing Chicago Center
00:22 42.2431 -84.0519 267° West 159 183 5,900  Level Chicago Center
00:23 42.2383 -84.1183 265° West 169 194 5,900  Level Chicago Center
00:24 42.2350 -84.1836 266° West 173 199 5,900  Level Chicago Center
00:25 42.2300 -84.2481 264° West 171 197 5,900  Level Chicago Center
00:26 42.2258 -84.3128 265° West 173 199 5,900  Level Chicago Center
00:27 42.2222 -84.3786 266° West 176 203 5,900  Level Chicago Center
00:28 42.2217 -84.4453 269° West 178 205 5,900  Level Chicago Center
00:29 42.2153 -84.5094 262° West 175 201 5,900  Level Chicago Center
00:30 42.2111 -84.5711 265° West 173 199 5,900  Level Chicago Center
00:31 42.2067 -84.6344 265° West 172 198 5,900  Level Chicago Center
00:32 42.2022 -84.6981 265° West 172 198 5,900  Level Chicago Center
00:33 42.1961 -84.7744 264° West 171 197 5,900  Level Chicago Center
00:34 42.1928 -84.8417 266° West 178 205 5,900  Level Chicago Center
00:35 42.1878 -84.9083 264° West 179 206 5,900  Level Chicago Center
00:36 42.1833 -84.9742 265° West 179 206 5,900  Level Chicago Center
00:37 42.1783 -85.0397 264° West 178 205 5,900  Level Chicago Center
00:38 42.1739 -85.1050 265° West 176 203 5,900  Level Chicago Center
00:39 42.1689 -85.1681 264° West 173 199 5,900  Level Chicago Center
00:40 42.1650 -85.2311 265° West 171 197 5,900  Level Chicago Center
00:41 42.1603 -85.2939 264° West 170 196 5,900  Level Chicago Center
00:42 42.1561 -85.3569 265° West 170 196 5,900  Level Chicago Center
00:43 42.1511 -85.4206 264° West 171 197 5,900  Level Chicago Center
00:44 42.1469 -85.4833 265° West 171 197 5,900  Level Chicago Center
00:45 42.1417 -85.5469 264° West 171 197 5,900  Level Chicago Center
00:46 42.1369 -85.6106 264° West 172 198 5,900  Level Chicago Center
00:47 42.1322 -85.6733 264° West 170 196 5,900  Level Chicago Center
00:48 42.1261 -85.7519 264° West 175 201 5,900  Level Chicago Center
00:49 42.1211 -85.8175 264° West 177 204 5,900  Level Chicago Center
00:50 42.1158 -85.8828 264° West 176 203 5,900  Level Chicago Center
00:51 42.1111 -85.9467 264° West 175 201 5,900  Level Chicago Center
00:52 42.1058 -86.0086 263° West 170 196 5,900  Level Chicago Center
00:53 42.1011 -86.0708 264° West 167 192 5,900  Level Chicago Center
00:54 42.0964 -86.1372 265° West 175 201 5,900  Level Chicago Center
00:55 42.0900 -86.2011 262° West 174 200 5,900  Level Chicago Center
00:56 42.0858 -86.2642 265° West 171 197 5,900  Level Chicago Center
00:57 42.0803 -86.3278 263° West 171 197 5,900  Level Chicago Center
00:58 42.0750 -86.3886 263° West 167 192 5,900  Level Chicago Center
00:59 42.0689 -86.4531 263° West 171 197 5,900  Level Chicago Center
01:00 42.0642 -86.5178 264° West 174 200 5,900  Level Chicago Center
01:01 42.0583 -86.5842 263° West 177 204 5,900  Level Chicago Center
01:02 42.0539 -86.6511 265° West 180 207 5,900  Level Chicago Center
01:03 42.0481 -86.7161 263° West 177 204 5,900  Level Chicago Center
01:04 42.0422 -86.7828 263° West 180 207 5,900  Level Chicago Center
01:05 42.0361 -86.8528 263° West 182 209 5,900  Level Chicago Center
01:06 42.0306 -86.9189 264° West 181 208 5,900  Level Chicago Center
01:07 42.0319 -86.9997 271° West 182 209 5,900  Level Chicago Center
01:08 42.0453 -87.0675 285° West 188 216 5,900  Level Chicago Center
01:09 42.0544 -87.1328 281° West 181 208 5,900  Level Chicago Center
01:10 42.0644 -87.2008 281° West 185 213 5,900  Level Chicago Center
01:11 42.0744 -87.2697 281° West 188 216 5,900  Level Chicago Center
01:12 42.0844 -87.3369 281° West 187 215 5,900  Level Chicago Center
01:13 42.0950 -87.4047 282° West 187 215 5,900  Level Chicago Center
01:14 42.1067 -87.4728 283° West 188 216 5,900  Level Chicago Center
01:14 42.1167 -87.5000 296° West 190 219 5,900  Level Chicago TRACON
01:15 42.1167 -87.5667 270° West 189 217 5,900 -240 Level Chicago TRACON
01:16 42.1300 -87.6108 292° West 191 220 5,500 -420 Descending Chicago Center
01:17 42.1394 -87.6856 280° West 200 230 5,200 -300 Descending Chicago Center
01:18 42.1514 -87.7569 283° West 199 229 4,900 -360 Descending Chicago Center
01:19 42.1625 -87.8308 281° West 201 231 4,500 -420 Descending Chicago Center
01:20 42.1722 -87.9008 281° West 196 226 4,100 -360 Descending Chicago Center
01:21 42.1794 -87.9678 278° West 189 217 3,800 -480 Descending Chicago Center
01:22 42.1578 -88.0275 244° Southwest 180 207 3,200 -480 Descending Chicago Center
01:23 42.1358 -88.0822 242° Southwest 176 203 2,900 -120 Descending Chicago Center
01:24 42.1150 -88.1417 245° Southwest 162 186 3,000  Climbing Chicago Center
01:25 42.0942 -88.1839 236° Southwest 152 175 3,000 -240 Level Chicago Center
01:26 42.0542 -88.1992 196° South 150 173 2,600 -300 Descending Chicago Center
01:27 42.0131 -88.2136 195° South 153 176 2,400 -240 Descending Chicago Center
01:28 41.9789 -88.2261 195° South 141 162 2,200 -420 Descending Chicago Center
01:29 41.9481 -88.2358 193° South 124 143 1,600 -540 Descending Chicago Center
01:30 41.9211 -88.2456 195° South 120 138 1,200 -420 Descending Chicago Center